TimeMST,TemperatureF,Dew PointF,Humidity,Sea Level PressureIn,VisibilityMPH,Wind Direction,Wind SpeedMPH,Gust SpeedMPH,PrecipitationIn,Events,Conditions,WindDirDegrees,DateUTC
12:39 AM,8.6,8.6,100,30.44,5.0,Calm,Calm,-,N/A,,Scattered Clouds,0,2013-01-17 07:39:00
12:42 AM,8.6,8.6,100,30.44,0.8,NNE,3.5,-,N/A,,Mist,30,2013-01-17 07:42:00
12:51 AM,8.6,8.6,100,30.43,0.2,Calm,Calm,-,N/A,Fog,Light Freezing Fog,0,2013-01-17 07:51:00
12:55 AM,9.0,8.1,96,30.59,0.2,Calm,Calm,-,N/A,Fog,Light Freezing Fog,0,2013-01-17 07:55:00
1:55 AM,12.9,10.0,88,30.58,0.2,Calm,Calm,-,N/A,Fog,Light Freezing Fog,0,2013-01-17 08:55:00
2:17 AM,12.2,8.6,85,30.44,0.2,Calm,Calm,-,N/A,Fog,Light Freezing Fog,0,2013-01-17 09:17:00
2:51 AM,12.2,10.4,92,30.44,0.2,Calm,Calm,-,N/A,Fog,Light Freezing Fog,0,2013-01-17 09:51:00
2:55 AM,12.9,10.0,88,30.57,0.8,Calm,Calm,-,N/A,,Mist,0,2013-01-17 09:55:00
2:57 AM,12.2,10.4,92,30.44,1.8,Calm,Calm,-,N/A,,Overcast,0,2013-01-17 09:57:00
3:00 AM,14.0,10.4,86,30.44,3.0,Calm,Calm,-,N/A,,Overcast,0,2013-01-17 10:00:00
3:05 AM,12.2,10.4,92,30.44,1.5,Calm,Calm,-,N/A,,Overcast,0,2013-01-17 10:05:00
3:07 AM,12.2,10.4,92,30.44,0.8,Calm,Calm,-,N/A,,Mist,0,2013-01-17 10:07:00
3:17 AM,14.0,10.4,86,30.44,0.2,Calm,Calm,-,N/A,Fog,Light Freezing Fog,0,2013-01-17 10:17:00
3:55 AM,15.1,12.0,88,30.57,0.2,Calm,Calm,-,N/A,Fog,Light Freezing Fog,0,2013-01-17 10:55:00
4:25 AM,15.8,12.2,86,30.44,0.2,Calm,Calm,-,N/A,Fog,Light Freezing Fog,0,2013-01-17 11:25:00
4:55 AM,14.0,10.0,84,30.57,0.2,Calm,Calm,-,N/A,Fog,Light Freezing Fog,0,2013-01-17 11:55:00
5:06 AM,12.2,8.6,85,30.43,0.8,Calm,Calm,-,N/A,,Mist,0,2013-01-17 12:06:00
5:34 AM,14.0,10.4,86,30.43,0.2,Calm,Calm,-,N/A,Fog,Light Freezing Fog,0,2013-01-17 12:34:00
5:55 AM,14.0,10.0,84,30.56,0.5,Calm,Calm,-,N/A,Fog,Light Freezing Fog,0,2013-01-17 12:55:00
6:18 AM,12.2,6.8,79,30.42,1.5,Calm,Calm,-,N/A,,Haze,0,2013-01-17 13:18:00
6:27 AM,12.2,6.8,79,30.43,3.0,Calm,Calm,-,N/A,,Haze,0,2013-01-17 13:27:00
6:33 AM,12.2,8.6,85,30.43,1.8,Calm,Calm,-,N/A,,Overcast,0,2013-01-17 13:33:00
6:37 AM,12.2,8.6,85,30.43,0.8,Calm,Calm,-,N/A,,Overcast,0,2013-01-17 13:37:00
6:55 AM,14.0,9.0,80,30.56,0.2,Calm,Calm,-,N/A,,Haze,0,2013-01-17 13:55:00
7:27 AM,14.0,10.4,86,30.42,0.1,Calm,Calm,-,N/A,Fog,Light Freezing Fog,0,2013-01-17 14:27:00
7:55 AM,15.1,10.9,84,30.57,0.1,Calm,Calm,-,N/A,Fog,Light Freezing Fog,0,2013-01-17 14:55:00
8:15 AM,15.8,12.2,86,30.43,0.1,Calm,Calm,-,N/A,Fog,Light Freezing Fog,0,2013-01-17 15:15:00
8:22 AM,15.8,12.2,86,30.43,0.1,Calm,Calm,-,N/A,Fog,Light Freezing Fog,0,2013-01-17 15:22:00
8:33 AM,15.8,12.2,86,30.43,0.1,Calm,Calm,-,N/A,Fog,Light Freezing Fog,0,2013-01-17 15:33:00
8:55 AM,16.0,12.0,84,30.60,0.1,Calm,Calm,-,N/A,Fog,Light Freezing Fog,0,2013-01-17 15:55:00
9:55 AM,19.0,14.0,81,30.60,0.1,Calm,Calm,-,N/A,,Mist,0,2013-01-17 16:55:00
10:55 AM,21.9,17.1,82,30.58,0.1,SW,3.5,-,N/A,,Mist,230,2013-01-17 17:55:00
11:55 AM,21.9,18.0,85,30.56,0.1,SE,3.5,-,N/A,Fog,Light Freezing Fog,130,2013-01-17 18:55:00
12:55 PM,24.1,21.9,91,30.53,0.1,Calm,Calm,-,0.00,Fog,Light Freezing Fog,0,2013-01-17 19:55:00
1:06 PM,24.8,21.2,86,30.38,0.5,Calm,Calm,-,N/A,Fog,Light Freezing Fog,0,2013-01-17 20:06:00
1:13 PM,24.8,21.2,86,30.37,0.1,Calm,Calm,-,N/A,Fog,Light Freezing Fog,0,2013-01-17 20:13:00
1:25 PM,24.8,21.2,86,30.37,1.2,SSW,3.5,-,N/A,,Mostly Cloudy,200,2013-01-17 20:25:00
1:28 PM,24.8,21.2,86,30.36,3.0,SSW,3.5,-,N/A,,Mostly Cloudy,210,2013-01-17 20:28:00
1:41 PM,24.8,21.2,86,30.36,4.0,South,3.5,-,N/A,,Scattered Clouds,180,2013-01-17 20:41:00
1:50 PM,24.8,21.2,86,30.35,2.5,South,3.5,-,N/A,,Partly Cloudy,170,2013-01-17 20:50:00
1:55 PM,24.1,21.9,91,30.49,4.0,South,3.5,-,N/A,,Partly Cloudy,180,2013-01-17 20:55:00
2:55 PM,28.0,21.9,78,30.45,7.0,Calm,Calm,-,N/A,,Clear,0,2013-01-17 21:55:00
3:55 PM,26.1,23.0,88,30.42,9.0,SW,3.5,-,N/A,,Clear,220,2013-01-17 22:55:00
4:55 PM,19.9,19.0,96,30.43,4.0,SSW,3.5,-,N/A,,Partly Cloudy,210,2013-01-17 23:55:00
5:03 PM,21.2,19.4,93,30.28,2.5,Calm,Calm,-,N/A,,Mostly Cloudy,0,2013-01-18 00:03:00
5:08 PM,21.2,19.4,93,30.27,1.2,Calm,Calm,-,N/A,,Mostly Cloudy,0,2013-01-18 00:08:00
5:17 PM,24.8,23.0,93,30.28,0.5,Calm,Calm,-,N/A,Fog,Light Freezing Fog,0,2013-01-18 00:17:00
5:27 PM,23.0,23.0,100,30.27,0.2,Calm,Calm,-,N/A,Fog,Light Freezing Fog,0,2013-01-18 00:27:00
5:41 PM,21.2,19.4,93,30.27,0.8,Calm,Calm,-,N/A,,Overcast,0,2013-01-18 00:41:00
5:44 PM,21.2,19.4,93,30.26,1.5,WSW,3.5,-,N/A,,Overcast,240,2013-01-18 00:44:00
5:46 PM,21.2,19.4,93,30.27,3.0,SW,3.5,-,N/A,,Overcast,230,2013-01-18 00:46:00
5:55 PM,21.9,21.0,96,30.41,1.0,Calm,Calm,-,N/A,Fog,Light Freezing Fog,0,2013-01-18 00:55:00
6:13 PM,21.2,21.2,100,30.26,0.5,WNW,3.5,-,N/A,Fog,Light Freezing Fog,290,2013-01-18 01:13:00
6:32 PM,23.0,21.2,93,30.25,0.2,Calm,Calm,-,N/A,Fog,Light Freezing Fog,0,2013-01-18 01:32:00
6:55 PM,23.0,23.0,100,30.38,0.2,NNE,3.5,-,N/A,Fog,Light Freezing Fog,20,2013-01-18 01:55:00
7:03 PM,24.8,23.0,93,30.24,0.2,Calm,Calm,-,N/A,Fog,Light Freezing Fog,0,2013-01-18 02:03:00
7:36 PM,24.8,21.2,86,30.24,0.2,NNE,4.6,-,N/A,Fog,Light Freezing Fog,30,2013-01-18 02:36:00
7:55 PM,24.1,23.0,96,30.36,0.2,NNE,3.5,-,N/A,Fog,Light Freezing Fog,30,2013-01-18 02:55:00
8:14 PM,24.8,21.2,86,30.23,0.5,NE,3.5,-,0.00,Fog-Snow,Light Snow,40,2013-01-18 03:14:00
8:43 PM,24.8,21.2,86,30.22,0.2,Calm,Calm,-,0.00,Fog,Light Freezing Fog,0,2013-01-18 03:43:00
8:55 PM,24.1,21.9,91,30.35,0.2,Calm,Calm,-,0.00,Fog,Light Freezing Fog,0,2013-01-18 03:55:00
9:28 PM,21.2,19.4,93,30.23,0.2,West,5.8,-,N/A,Fog,Light Freezing Fog,270,2013-01-18 04:28:00
9:37 PM,19.4,17.6,93,30.23,0.2,North,3.5,-,N/A,Fog,Light Freezing Fog,10,2013-01-18 04:37:00
9:53 PM,19.4,17.6,93,30.24,0.2,NE,6.9,-,N/A,Fog,Light Freezing Fog,50,2013-01-18 04:53:00
9:55 PM,19.0,17.1,92,30.37,0.2,NE,6.9,-,N/A,Fog,Light Freezing Fog,50,2013-01-18 04:55:00
10:55 PM,18.0,16.0,92,30.35,0.2,Calm,Calm,-,N/A,Fog,Light Freezing Fog,0,2013-01-18 05:55:00
11:13 PM,17.6,15.8,93,30.22,0.5,Calm,Calm,-,N/A,Fog,Light Freezing Fog,0,2013-01-18 06:13:00
11:32 PM,15.8,12.2,86,30.22,0.2,Calm,Calm,-,N/A,Fog,Light Freezing Fog,0,2013-01-18 06:32:00
11:55 PM,15.1,12.9,91,30.35,0.2,Calm,Calm,-,N/A,Fog,Light Freezing Fog,0,2013-01-18 06:55:00